Flag for U.S.A. Weather past 2 weeks in Anderson, South Carolina, U.S.A.

Now
51 °F

More clouds than sun.


Feels Like: 51 °F
Forecast: 37 / 57 °F
Wind: 3 mph from Northwest

Location: Anderson County Airport

Current Time: Feb 1, 2015 at 1:19:25 PM

Latest Report: Feb 1, 2015 at 12:56 PM


Visibility: 10 mi

Pressure: 30.14 "Hg

Humidity: 54%

Dew point: 35 °F

Location of AndersonLocation

Historic Weather in Anderson — Graph

°F

Anderson temperature yesterday

Maximum temperature yesterday: 53 °F (at 3:56 PM)
Minimum temperature yesterday: 22 °F (at 5:56 AM)
Average temperature yesterday: 38 °F

Past Weeks' High & Low Weather Summary

 TemperatureHumidityPressure
High67 °F (Jan 20, 2:56 PM)100% (Jan 24, 4:56 AM)30.39 "Hg (Jan 24, 4:56 AM)
Low22 °F (Jan 31, 5:56 AM)18% (Jan 19, 2:56 PM)29.64 "Hg (Jan 24, 6:56 AM)
Average44 °F57%30.05 "Hg
* Reported Jan 17 11:56 AM — Feb 1 11:56 AM, Anderson, Weather by CustomWeather, © 2014

Note: Actual official high and low records may vary slightly from our data, if they occured in-between our weather recording intervals... More about our weather records

Advertising

Anderson weather history for previous 24 hours

 ConditionsComfort  
Time TempWeatherWind HumidityBarometerVisibility
11:56 AM
Feb 1
49 °FOvercast.No wind55%30.18 "Hg10 mi
10:56 AM46 °FOvercast.No wind56%30.22 "Hg10 mi
9:56 AM43 °FSunny.3 mph58%30.24 "Hg10 mi
8:56 AM40 °FSunny.No wind68%30.25 "Hg10 mi
7:56 AM38 °FSunny.No wind63%30.24 "Hg10 mi
6:56 AM37 °FClear.3 mph73%30.25 "Hg10 mi
5:56 AM37 °FClear.No wind76%30.25 "Hg10 mi
4:56 AM38 °FClear.No wind70%30.24 "Hg10 mi
3:56 AM39 °FClear.No wind67%30.24 "Hg10 mi
2:56 AM40 °FClear.No wind60%30.25 "Hg10 mi
1:56 AM39 °FClear.No wind67%30.27 "Hg10 mi
12:56 AM40 °FClear.No wind65%30.28 "Hg10 mi
11:56 PM
Jan 31
40 °FClear.No wind65%30.29 "Hg10 mi
10:56 PM41 °FClear.No wind55%30.30 "Hg10 mi
9:56 PM41 °FClear.No wind51%30.30 "Hg10 mi
8:56 PM43 °FClear.No wind45%30.31 "Hg10 mi
7:56 PM44 °FClear.No wind45%30.32 "Hg10 mi
6:56 PM47 °FClear.No wind33%30.33 "Hg10 mi
5:56 PM50 °FSunny.No wind26%30.31 "Hg10 mi
4:56 PM52 °FSunny.No wind24%30.30 "Hg10 mi
3:56 PM53 °FSunny.8 mph23%30.30 "Hg10 mi
2:56 PM51 °FSunny.10 mph22%30.32 "Hg10 mi
1:56 PM49 °FSunny.3 mph23%30.33 "Hg10 mi
Weather by CustomWeather, © 2014

See weather overviewHow to use our weather pages